CZ-6A DEB, 56582

Orbit data source: Space-Track

CZ-6A DEB, 56582 is space debris in SSO originally from a launch on Fri, 11 Nov 2022 UTC launched from the Taiyaun Space Center, China (TSC). Debris objects in space refer to the collection of defunct objects orbiting the Earth. Examples of debris include non-operational satellites, rocket bodies, and fragments generated from explosions, collisions, or faulty payload assembly.

Loading next visibility...
Identifier
56582, 2022-151ADE
Orbit
SSO
Country
Flag of CNCN / PRC
Related business
Manufacturer
SAST
Mission
Spacecraft
Bus & Motor
Unknown
Mass
Unknown
Launch date (UTC)
2022-11-11 (3 years ago)
Launch vehicle
Unknown
Launch site
Taiyaun Space Center, China (TSC)
Object type
Payload
Rocket body
Debris
Shape & HBR
Unknown shape, 0.1 m
Radar Cross Section
Small (<0.1 m²)

Expand to show TLE details & history
Last TLE update: 16 hours ago

TLE from 16 hours ago
0 CZ-6A DEB
1 56582U 22151ADE 26130.00327661  .00001229  00000-0  54339-3 0  9995
2 56582  98.7611 149.2910 0010821  79.3413 280.8984 14.25039970169459
Epoch: 2026-05-10T00:04Z
TLE epoch observation values (Epoch: 2026-05-10T00:04:43.099Z)
Latitude
-0.00002°
Longitude
-79.70118°
Altitude
809.816 km
Speed
7.449 km/s
True Right ascension
09h 57m 09s
True Declination
0° 00' 00"
Sunlit
Object was in daylight at epoch
Visualization orbit readout
Latitude
Unknown
Longitude
Unknown
Altitude
Unknown
Speed
Unknown
Apparent Right ascension
Unknown
Apparent Declination
Unknown
Sunlit
N/A
Visualization observer readout
Local Sidereal Time
00:21:40
Azimuth
Unknown
Elevation
Unknown
Doppler factor
Unknown
Orbital elements
Apogee altitude
813.286 km
Perigee altitude
797.739 km
Semi-major axis
7,183.65 km
Eccentricity
0.00108
Inclination
98.7611°
RAAN
149.291°
Arg. of periapsis
79.3413°
True anomaly
280.77661°
Mean anomaly
280.8984°
Eccentric anomaly
280.83751°
Mean motion
3.56472 °/min
Orbital period
100.99 mins
BSTAR
0.00054339
Loading maneuver chart data...
Computing Atmospheric mass density...
Loading historical data...
Loading historical data...
Loading historical data...
Loading historical data...
Loading historical data...
Loading historical data...
Loading historical data...

Documentation

Showing up to 5 results
|